Tracking 29606 objects as of 18-Sep-2024
HD Live streaming from Space Station
objects crossing your sky now

CP5

Track CP5 now!
10-day predictions
CP5 is classified as:


NORAD ID: 38763
Int'l Code: 2012-048F
Perigee: 467.4 km
Apogee: 644.3 km
Inclination: 64.7 °
Period: 95.6 minutes
Semi major axis: 6926 km
RCS: Unknown
Launch date: September 13, 2012
Source: United States (US)
Launch site: AIR FORCE WESTERN TEST RANGE (AFWTR)

Uplink (MHz):
Downlink (MHz): 437.405
Beacon (MHz): 437.405
Mode: 1200bps AFSK CW
Call sign: CP5
Status: Inactive

Your satellite tracking list
Your tracking list is empty




NASA's NSSDC Master Catalog

Two Line Element Set (TLE):
1 38763U 12048F   24261.86783084  .00019273  00000-0  11053-2 0  9995
2 38763  64.6599  65.9143 0127692 352.9420   6.9894 15.05917973 20058
Source of the keplerian elements: Caltech